DAERO SEQM-SKBO

Flight info

Callsign DAERO
Flight time 1h 6m
Altitude 38000
Route ARNOK3A ARNOK UP533 BOKAN DCT ESARO/N0469F390 DCT GIR GIR5E
Aircraft A346/H-SDE2E3FGHIJ3J4J5M1RWXY/LB1D1

Departure

Time 2026-04-30 20:47
Airport Mariscal Sucre International Airport (SEQM)

Arrival

Time 2026-04-30 21:53
Airport El Dorado International Airport (SKBO)
Time Latitude Longitude Altitude Speed Heading
2026-04-30 20:20 -0.12824 -78.35761 7867 ft 0 kts 266°
2026-04-30 20:34 -0.12824 -78.35716 7870 ft 4 kts 267°
2026-04-30 20:34 -0.12806 -78.35685 7870 ft 4 kts 210°
2026-04-30 20:35 -0.12785 -78.35679 7869 ft 4 kts 180°
2026-04-30 20:35 -0.12760 -78.35681 7867 ft 2 kts 178°
2026-04-30 20:35 -0.12759 -78.35681 7867 ft 0 kts 178°
2026-04-30 20:40 -0.12758 -78.35681 7867 ft 0 kts 178°
2026-04-30 20:40 -0.12756 -78.35681 7867 ft 0 kts 178°
2026-04-30 20:40 -0.12762 -78.35681 7867 ft 2 kts 178°
2026-04-30 20:41 -0.12823 -78.35678 7872 ft 7 kts 177°
2026-04-30 20:41 -0.12889 -78.35675 7875 ft 12 kts 177°
2026-04-30 20:41 -0.12985 -78.35670 7879 ft 15 kts 177°
2026-04-30 20:41 -0.13088 -78.35666 7883 ft 14 kts 177°
2026-04-30 20:42 -0.13182 -78.35661 7886 ft 13 kts 177°
2026-04-30 20:42 -0.13271 -78.35658 7890 ft 12 kts 177°
2026-04-30 20:42 -0.13491 -78.35649 7896 ft 16 kts 178°
2026-04-30 20:43 -0.13564 -78.35608 7898 ft 12 kts 124°
2026-04-30 20:43 -0.13633 -78.35566 7908 ft 13 kts 169°
2026-04-30 20:43 -0.13737 -78.35559 7904 ft 17 kts 178°
2026-04-30 20:44 -0.13993 -78.35547 7905 ft 17 kts 177°
2026-04-30 20:44 -0.14102 -78.35542 7923 ft 14 kts 177°
2026-04-30 20:44 -0.14239 -78.35501 7927 ft 5 kts 123°
2026-04-30 20:45 -0.14254 -78.35433 7923 ft 9 kts 92°
2026-04-30 20:45 -0.14204 -78.35373 7925 ft 10 kts
2026-04-30 20:45 -0.14176 -78.35373 7924 ft 0 kts 359°
2026-04-30 20:46 -0.13339 -78.35408 7895 ft 116 kts 357°
2026-04-30 20:46 -0.12363 -78.35448 7853 ft 164 kts 357°
2026-04-30 20:47 -0.09704 -78.35528 8429 ft 199 kts 359°
2026-04-30 20:47 -0.08302 -78.35615 9091 ft 202 kts 355°
2026-04-30 20:48 -0.05534 -78.36352 10046 ft 214 kts 343°
2026-04-30 20:48 -0.04079 -78.36867 10267 ft 227 kts 342°
2026-04-30 20:48 -0.02545 -78.37415 10515 ft 240 kts 342°
2026-04-30 20:48 -0.00921 -78.37991 10784 ft 254 kts 342°
2026-04-30 20:49 0.00776 -78.38587 10980 ft 266 kts 341°
2026-04-30 20:49 0.02554 -78.39216 11221 ft 282 kts 342°
2026-04-30 20:49 0.04488 -78.39893 11525 ft 299 kts 341°
2026-04-30 20:50 0.08624 -78.41336 12053 ft 330 kts 342°
2026-04-30 20:50 0.10841 -78.42107 12310 ft 344 kts 342°
2026-04-30 20:50 0.13205 -78.42608 12637 ft 354 kts 360°
2026-04-30 20:50 0.15671 -78.42257 12890 ft 366 kts 21°
2026-04-30 20:51 0.17907 -78.40976 13181 ft 378 kts 41°
2026-04-30 20:51 0.21806 -78.37316 14406 ft 388 kts 44°
2026-04-30 20:51 0.23757 -78.35485 15113 ft 390 kts 44°
2026-04-30 20:52 0.25752 -78.33622 15713 ft 396 kts 45°
2026-04-30 20:52 0.27778 -78.31728 16283 ft 401 kts 45°
2026-04-30 20:52 0.31891 -78.27890 17449 ft 408 kts 45°
2026-04-30 20:53 0.33982 -78.25942 18038 ft 412 kts 45°
2026-04-30 20:53 0.36092 -78.23976 18567 ft 416 kts 45°
2026-04-30 20:53 0.38218 -78.21997 19056 ft 419 kts 45°
2026-04-30 20:54 0.42503 -78.18002 20087 ft 423 kts 45°
2026-04-30 20:54 0.44665 -78.15986 20557 ft 426 kts 45°
2026-04-30 20:54 0.46846 -78.13955 20997 ft 429 kts 44°
2026-04-30 20:55 0.51394 -78.10018 21956 ft 435 kts 39°
2026-04-30 20:55 0.53819 -78.08188 22373 ft 439 kts 39°
2026-04-30 20:55 0.56275 -78.06359 22850 ft 441 kts 38°
2026-04-30 20:56 0.61233 -78.02673 23699 ft 446 kts 38°
2026-04-30 20:56 0.63709 -78.00834 24022 ft 450 kts 37°
2026-04-30 20:56 0.68755 -77.97081 24667 ft 456 kts 37°
2026-04-30 20:57 0.71306 -77.95181 25013 ft 460 kts 38°
2026-04-30 20:57 0.73901 -77.93248 25332 ft 463 kts 38°
2026-04-30 20:57 0.76494 -77.91313 25630 ft 467 kts 37°
2026-04-30 20:58 0.81685 -77.87355 26294 ft 472 kts 40°
2026-04-30 20:58 0.84212 -77.85232 26612 ft 475 kts 40°
2026-04-30 20:58 0.86738 -77.83083 26922 ft 479 kts 41°
2026-04-30 20:58 0.89251 -77.80939 27239 ft 482 kts 41°
2026-04-30 20:59 0.94391 -77.76557 28115 ft 489 kts 41°
2026-04-30 20:59 0.96991 -77.74343 28385 ft 493 kts 41°
2026-04-30 21:00 1.02215 -77.69896 29150 ft 494 kts 40°
2026-04-30 21:00 1.07451 -77.65439 29965 ft 494 kts 40°
2026-04-30 21:01 1.12699 -77.60970 30634 ft 495 kts 40°
2026-04-30 21:01 1.15318 -77.58735 31057 ft 493 kts 40°
2026-04-30 21:01 1.20533 -77.54298 31812 ft 491 kts 39°
2026-04-30 21:02 1.23138 -77.52081 32193 ft 491 kts 39°
2026-04-30 21:02 1.25736 -77.49872 32652 ft 490 kts 39°
2026-04-30 21:02 1.28325 -77.47666 33129 ft 488 kts 39°
2026-04-30 21:02 1.30907 -77.45467 33619 ft 486 kts 39°
2026-04-30 21:03 1.33478 -77.43277 34102 ft 484 kts 39°
2026-04-30 21:03 1.36042 -77.41094 34460 ft 483 kts 39°
2026-04-30 21:03 1.38597 -77.38919 34818 ft 483 kts 39°
2026-04-30 21:03 1.41157 -77.36740 35187 ft 483 kts 39°
2026-04-30 21:04 1.43712 -77.34562 35567 ft 482 kts 38°
2026-04-30 21:04 1.46260 -77.32393 35908 ft 482 kts 38°
2026-04-30 21:04 1.51381 -77.28028 36471 ft 485 kts 38°
2026-04-30 21:05 1.53965 -77.25828 36658 ft 489 kts 38°
2026-04-30 21:05 1.56578 -77.23605 36895 ft 491 kts 38°
2026-04-30 21:05 1.59148 -77.21415 37202 ft 492 kts 38°
2026-04-30 21:05 1.61752 -77.19197 37537 ft 492 kts 38°
2026-04-30 21:06 1.64359 -77.16977 37767 ft 493 kts 37°
2026-04-30 21:06 1.66984 -77.14742 37863 ft 496 kts 37°
2026-04-30 21:06 1.72252 -77.10257 37866 ft 496 kts 37°
2026-04-30 21:07 1.77515 -77.05773 37911 ft 496 kts 37°
2026-04-30 21:07 1.82776 -77.01291 37879 ft 496 kts 37°
2026-04-30 21:08 1.88014 -76.96826 37875 ft 498 kts 37°
2026-04-30 21:08 1.92400 -76.93088 37920 ft 499 kts 37°
2026-04-30 21:09 1.98599 -76.87808 37897 ft 500 kts 37°
2026-04-30 21:09 2.03881 -76.83305 37902 ft 500 kts 37°
2026-04-30 21:10 2.09175 -76.78792 37928 ft 499 kts 37°
2026-04-30 21:10 2.14477 -76.74273 37936 ft 499 kts 37°
2026-04-30 21:11 2.19729 -76.69794 37953 ft 499 kts 37°
2026-04-30 21:11 2.25014 -76.65291 37956 ft 499 kts 38°
2026-04-30 21:12 2.30295 -76.60787 37984 ft 498 kts 38°
2026-04-30 21:12 2.35570 -76.56286 37994 ft 498 kts 38°
2026-04-30 21:13 2.40848 -76.51782 37986 ft 498 kts 38°
2026-04-30 21:13 2.46123 -76.47282 37995 ft 497 kts 38°
2026-04-30 21:14 2.51370 -76.42805 37990 ft 496 kts 38°
2026-04-30 21:14 2.56595 -76.38348 37971 ft 496 kts 38°
2026-04-30 21:15 2.61854 -76.33863 37981 ft 497 kts 38°
2026-04-30 21:15 2.67134 -76.29356 37966 ft 498 kts 38°
2026-04-30 21:16 2.72409 -76.24851 37967 ft 498 kts 38°
2026-04-30 21:16 2.77653 -76.20375 37981 ft 498 kts 38°
2026-04-30 21:17 2.82933 -76.15867 37977 ft 498 kts 38°
2026-04-30 21:17 2.88167 -76.11250 38232 ft 504 kts 40°
2026-04-30 21:18 2.90712 -76.08844 38650 ft 502 kts 40°
2026-04-30 21:18 2.93240 -76.06439 38934 ft 500 kts 41°
2026-04-30 21:18 2.98287 -76.01638 38981 ft 501 kts 41°
2026-04-30 21:19 3.03341 -75.96837 38992 ft 504 kts 41°
2026-04-30 21:19 3.08427 -75.92003 38972 ft 504 kts 40°
2026-04-30 21:20 3.13474 -75.87209 38984 ft 504 kts 41°
2026-04-30 21:20 3.18566 -75.82369 38979 ft 504 kts 40°
2026-04-30 21:21 3.23665 -75.77524 38927 ft 505 kts 41°
2026-04-30 21:22 3.31276 -75.70291 38929 ft 501 kts 41°
2026-04-30 21:23 3.41376 -75.60689 38712 ft 502 kts 41°
2026-04-30 21:23 3.43905 -75.58282 38466 ft 500 kts 41°
2026-04-30 21:23 3.48923 -75.53511 37922 ft 495 kts 41°
2026-04-30 21:24 3.51413 -75.51143 37647 ft 492 kts 41°
2026-04-30 21:24 3.53897 -75.48781 37338 ft 492 kts 41°
2026-04-30 21:24 3.56379 -75.46422 37091 ft 491 kts 41°
2026-04-30 21:24 3.58859 -75.44062 36835 ft 491 kts 41°
2026-04-30 21:25 3.63820 -75.39343 36292 ft 492 kts 41°
2026-04-30 21:25 3.66302 -75.36982 35905 ft 492 kts 41°
2026-04-30 21:25 3.68789 -75.34616 35362 ft 493 kts 42°
2026-04-30 21:26 3.73774 -75.29874 34179 ft 495 kts 42°
2026-04-30 21:26 3.76276 -75.27494 33520 ft 497 kts 43°
2026-04-30 21:27 3.81266 -75.22741 32189 ft 499 kts 43°
2026-04-30 21:27 3.83783 -75.20342 31543 ft 499 kts 43°
2026-04-30 21:27 3.86305 -75.17940 30890 ft 500 kts 43°
2026-04-30 21:28 3.91368 -75.13118 29483 ft 503 kts 43°
2026-04-30 21:28 3.93911 -75.10697 28691 ft 504 kts 43°
2026-04-30 21:28 3.98994 -75.05857 27207 ft 504 kts 44°
2026-04-30 21:29 4.01525 -75.03446 26618 ft 500 kts 44°
2026-04-30 21:29 4.08911 -74.96405 25189 ft 481 kts 45°
2026-04-30 21:30 4.13719 -74.91819 24167 ft 472 kts 45°
2026-04-30 21:31 4.21700 -74.86396 22638 ft 463 kts 19°
2026-04-30 21:31 4.27939 -74.85353 21821 ft 447 kts
2026-04-30 21:32 4.33930 -74.84629 21577 ft 421 kts
2026-04-30 21:32 4.36801 -74.84264 21393 ft 410 kts
2026-04-30 21:32 4.39584 -74.83904 21321 ft 396 kts
2026-04-30 21:32 4.42271 -74.83553 21247 ft 384 kts
2026-04-30 21:33 4.44879 -74.83212 21097 ft 373 kts 10°
2026-04-30 21:33 4.49120 -74.82651 20620 ft 365 kts 10°
2026-04-30 21:33 4.52469 -74.82209 20174 ft 360 kts 10°
2026-04-30 21:34 4.54114 -74.81991 19905 ft 360 kts 10°
2026-04-30 21:34 4.59057 -74.81336 19167 ft 356 kts 10°
2026-04-30 21:34 4.61508 -74.81012 18838 ft 354 kts 10°
2026-04-30 21:35 4.63942 -74.80690 18503 ft 352 kts 10°
2026-04-30 21:35 4.67140 -74.80267 18016 ft 349 kts 10°
2026-04-30 21:35 4.68763 -74.80053 17766 ft 347 kts 10°
2026-04-30 21:35 4.71148 -74.79738 17422 ft 344 kts 10°
2026-04-30 21:36 4.73478 -74.79430 17079 ft 340 kts 10°
2026-04-30 21:36 4.75818 -74.79202 16883 ft 333 kts
2026-04-30 21:37 4.82575 -74.79763 16646 ft 320 kts 354°
2026-04-30 21:37 4.84766 -74.80082 16621 ft 317 kts 354°
2026-04-30 21:37 4.86944 -74.80395 16622 ft 315 kts 354°
2026-04-30 21:37 4.89108 -74.80703 16623 ft 314 kts 354°
2026-04-30 21:38 4.91269 -74.81008 16619 ft 313 kts 355°
2026-04-30 21:38 4.93434 -74.81227 16582 ft 311 kts
2026-04-30 21:38 4.95588 -74.81106 16572 ft 308 kts 12°
2026-04-30 21:38 4.97664 -74.80641 16560 ft 305 kts 19°
2026-04-30 21:39 4.99696 -74.80008 16555 ft 306 kts 21°
2026-04-30 21:39 5.01719 -74.79349 16543 ft 306 kts 21°
2026-04-30 21:39 5.03678 -74.78484 16367 ft 315 kts 40°
2026-04-30 21:39 5.05050 -74.76793 16093 ft 314 kts 70°
2026-04-30 21:40 5.05402 -74.74660 15854 ft 311 kts 95°
2026-04-30 21:40 5.05215 -74.72531 15662 ft 310 kts 96°
2026-04-30 21:40 5.05051 -74.70348 15417 ft 308 kts 95°
2026-04-30 21:40 5.04935 -74.68227 15189 ft 307 kts 94°
2026-04-30 21:41 5.04844 -74.66086 14973 ft 307 kts 93°
2026-04-30 21:41 5.04769 -74.63946 14738 ft 304 kts 93°
2026-04-30 21:41 5.04705 -74.61837 14507 ft 299 kts 93°
2026-04-30 21:41 5.04648 -74.59772 14281 ft 294 kts 92°
2026-04-30 21:42 5.04593 -74.57748 14049 ft 287 kts 92°
2026-04-30 21:42 5.04546 -74.55761 13833 ft 281 kts 93°
2026-04-30 21:42 5.04495 -74.53814 13595 ft 276 kts 92°
2026-04-30 21:42 5.04448 -74.51904 13322 ft 271 kts 92°
2026-04-30 21:43 5.04404 -74.50032 13071 ft 265 kts 93°
2026-04-30 21:43 5.04357 -74.48195 12857 ft 261 kts 93°
2026-04-30 21:43 5.04310 -74.46394 12637 ft 253 kts 93°
2026-04-30 21:43 5.04225 -74.44686 12616 ft 236 kts 100°
2026-04-30 21:44 5.03780 -74.43173 12591 ft 218 kts 115°
2026-04-30 21:44 5.03010 -74.41912 12589 ft 210 kts 128°
2026-04-30 21:44 5.01987 -74.40907 12598 ft 209 kts 141°
2026-04-30 21:44 5.00728 -74.40165 12611 ft 211 kts 154°
2026-04-30 21:45 4.99316 -74.39749 12599 ft 212 kts 168°
2026-04-30 21:45 4.97833 -74.39695 12614 ft 215 kts 182°
2026-04-30 21:45 4.96358 -74.39995 12622 ft 216 kts 192°
2026-04-30 21:45 4.94966 -74.40415 12587 ft 200 kts 193°
2026-04-30 21:46 4.93667 -74.40779 12578 ft 187 kts 183°
2026-04-30 21:46 4.92393 -74.40783 12598 ft 182 kts 168°
2026-04-30 21:46 4.91184 -74.40426 12654 ft 181 kts 153°
2026-04-30 21:46 4.90120 -74.39737 12676 ft 183 kts 137°
2026-04-30 21:47 4.89272 -74.38782 12616 ft 184 kts 128°
2026-04-30 21:47 4.88528 -74.37758 12466 ft 184 kts 126°
2026-04-30 21:47 4.87785 -74.36714 12335 ft 183 kts 125°
2026-04-30 21:47 4.87050 -74.35672 12217 ft 182 kts 126°
2026-04-30 21:48 4.86310 -74.34637 12085 ft 181 kts 125°
2026-04-30 21:48 4.85576 -74.33608 11973 ft 181 kts 126°
2026-04-30 21:48 4.84793 -74.32617 11862 ft 181 kts 131°
2026-04-30 21:48 4.83915 -74.31707 11685 ft 181 kts 136°
2026-04-30 21:49 4.82972 -74.30881 11478 ft 179 kts 139°
2026-04-30 21:49 4.82023 -74.30070 11292 ft 179 kts 139°
2026-04-30 21:49 4.81046 -74.29300 11110 ft 178 kts 142°
2026-04-30 21:49 4.80082 -74.28524 10944 ft 177 kts 136°
2026-04-30 21:50 4.79220 -74.27640 10788 ft 177 kts 131°
2026-04-30 21:50 4.78430 -74.26697 10712 ft 177 kts 129°
2026-04-30 21:50 4.77677 -74.25720 10535 ft 177 kts 126°
2026-04-30 21:50 4.76959 -74.24742 10307 ft 176 kts 126°
2026-04-30 21:51 4.76243 -74.23747 10090 ft 175 kts 125°
2026-04-30 21:51 4.75511 -74.22775 9884 ft 175 kts 126°
2026-04-30 21:51 4.74795 -74.21776 9678 ft 177 kts 124°
2026-04-30 21:51 4.74057 -74.20791 9502 ft 175 kts 129°
2026-04-30 21:52 4.73285 -74.19854 9307 ft 174 kts 129°
2026-04-30 21:52 4.72545 -74.18887 8983 ft 174 kts 127°
2026-04-30 21:52 4.71818 -74.17932 8719 ft 171 kts 128°
2026-04-30 21:52 4.71097 -74.16973 8430 ft 170 kts 128°
2026-04-30 21:53 4.70430 -74.16103 8370 ft 138 kts 127°
2026-04-30 21:53 4.69955 -74.15473 8370 ft 90 kts 127°
2026-04-30 21:53 4.69649 -74.15071 8370 ft 61 kts 127°
2026-04-30 21:53 4.69421 -74.14769 8368 ft 37 kts 127°
2026-04-30 21:54 4.69355 -74.14638 8368 ft 19 kts 79°
2026-04-30 21:54 4.69442 -74.14546 8370 ft 19 kts 34°
2026-04-30 21:54 4.69552 -74.14569 8370 ft 19 kts 304°
2026-04-30 21:54 4.69629 -74.14682 8370 ft 20 kts 306°
2026-04-30 21:55 4.69714 -74.14786 8370 ft 18 kts 327°
2026-04-30 21:55 4.69823 -74.14757 8370 ft 18 kts 54°
2026-04-30 21:55 4.69804 -74.14654 8370 ft 16 kts 123°
2026-04-30 21:55 4.69736 -74.14560 8370 ft 17 kts 126°
2026-04-30 21:56 4.69674 -74.14475 8370 ft 11 kts 123°
2026-04-30 21:56 4.69676 -74.14458 8370 ft 1 kts 17°
2026-04-30 21:56 4.69683 -74.14461 8370 ft 1 kts 319°
2026-04-30 21:56 4.69688 -74.14470 8370 ft 5 kts 296°
2026-04-30 21:57 4.69722 -74.14542 8370 ft 18 kts 303°
2026-04-30 21:57 4.69809 -74.14661 8370 ft 22 kts 307°
2026-04-30 21:57 4.69939 -74.14672 8370 ft 22 kts 36°
2026-04-30 21:57 4.70062 -74.14578 8370 ft 22 kts 37°
2026-04-30 21:58 4.70186 -74.14484 8370 ft 22 kts 37°
2026-04-30 21:58 4.70299 -74.14398 8370 ft 17 kts 37°
2026-04-30 21:58 4.70322 -74.14295 8370 ft 18 kts 118°
2026-04-30 21:58 4.70228 -74.14220 8370 ft 18 kts 176°
2026-04-30 21:59 4.70146 -74.14185 8370 ft 6 kts 174°
2026-04-30 21:59 4.70097 -74.14195 8370 ft 8 kts 210°
2026-04-30 21:59 4.70067 -74.14217 8370 ft 0 kts 218°
2026-04-30 22:00 4.70083 -74.14204 8370 ft 7 kts 218°
2026-04-30 22:00 4.70116 -74.14178 8370 ft 0 kts 218°
2026-04-30 22:00 4.70107 -74.14185 8370 ft 1 kts 218°
2026-04-30 22:01 4.70096 -74.14194 8370 ft 5 kts 218°
2026-04-30 22:01 4.70077 -74.14209 8370 ft 2 kts 218°
2026-04-30 22:01 4.70071 -74.14214 8370 ft 0 kts 218°
2026-04-30 22:01 4.70068 -74.14216 8370 ft 0 kts 218°
2026-04-30 22:02 4.70067 -74.14216 8370 ft 0 kts 218°